Date String (YYYY-MM-DD hh:mm:ss) UTC,Instrument flags,Ambient pressure (hPa),Sample flow (lpm),Bypass flow (lpm),Sample temperature (°C),Ambient temperature (°C),ASC tube jacket temperature (°C),LED temperature (°C),Box temperature (°C),Sample RH (%),Span deviation,Mass concentration (μg/m³),Mass concentration (μg/m³),Mass concentration (μg/m³)
DateTimeUTC,F1_M11,P_M11,Q1_M11,Q2_M11,T1_M11,T2_M11,T3_M11,T4_M11,T5_M11,U1_M11,ZSPAN_M11,X0_M11,X2_M11,X1_M11
2022-12-30 20:00:00,,0816.4,5.02,0.00,24.4,23.2,00.0,33.2,26.2,08.7,0000.0,0015.54,0008.09,0007.42
2022-12-30 20:01:00,,0816.5,5.00,0.00,24.5,23.3,00.0,33.2,26.2,08.6,0001.2,0015.29,0008.24,0007.54
2022-12-30 20:02:00,,0816.5,5.01,0.00,24.5,23.3,00.0,33.2,26.2,08.3,0003.8,0015.58,0008.46,0007.74
2022-12-30 20:03:00,,0816.4,5.03,0.00,24.4,23.2,00.0,33.2,26.3,08.1,0003.6,0015.62,0008.52,0007.82
2022-12-30 20:04:00,,0816.4,4.97,0.00,24.4,23.2,00.0,33.2,26.2,08.1,0003.6,0015.80,0008.45,0007.75
2022-12-30 20:05:00,,0816.4,5.00,0.00,24.4,23.1,00.0,33.2,26.1,08.5,0000.6,0015.70,0008.42,0007.70
2022-12-30 20:06:00,,0816.4,5.06,0.00,24.4,23.1,00.0,33.2,26.1,08.4,0000.0,0015.45,0008.35,0007.62
2022-12-30 20:07:00,,0816.4,5.02,0.00,24.4,23.1,00.0,33.2,26.0,08.5,0000.0,0015.25,0008.20,0007.50
2022-12-30 20:08:00,,0816.3,4.97,0.00,24.4,23.1,00.0,33.2,26.1,07.8,0000.0,0014.14,0008.00,0007.32
2022-12-30 20:09:00,,0816.3,5.03,0.00,24.4,23.1,00.0,33.2,26.1,07.2,0000.0,0013.51,0007.65,0006.98
2022-12-30 20:10:00,,0816.3,5.00,0.00,24.4,23.1,00.0,33.2,26.1,06.4,0000.0,0013.53,0007.19,0006.55
2022-12-30 20:11:00,,0816.3,5.00,0.00,24.4,23.1,00.0,33.2,26.1,06.9,0000.0,0012.86,0006.79,0006.17
2022-12-30 20:12:00,,0816.3,5.02,0.00,24.4,23.1,00.0,33.2,26.1,07.5,0000.0,0013.06,0006.59,0005.97
2022-12-30 20:13:00,,0816.4,4.98,0.00,24.4,23.1,00.0,33.2,26.1,07.9,0000.0,0013.09,0006.43,0005.81
2022-12-30 20:14:00,,0816.3,4.97,0.00,24.4,23.1,00.0,33.2,26.1,08.2,0000.0,0013.00,0006.38,0005.77
2022-12-30 20:15:00,,0816.3,4.99,0.00,24.4,23.1,00.0,33.2,26.1,07.9,0000.0,0012.46,0006.27,0005.73
2022-12-30 20:16:00,,0816.3,5.03,0.00,24.4,23.1,00.0,33.2,26.1,07.8,0000.0,0011.97,0006.05,0005.55
2022-12-30 20:17:00,,0816.2,4.99,0.00,24.4,23.1,00.0,33.2,26.1,07.5,0000.0,0012.16,0005.88,0005.37
2022-12-30 20:18:00,,0816.2,5.00,0.00,24.4,23.1,00.0,33.2,26.2,07.1,0000.0,0011.88,0005.63,0005.15
2022-12-30 20:19:00,,0816.1,4.98,0.00,24.4,23.1,00.0,33.2,26.2,07.3,0000.0,0011.70,0005.53,0005.05
2022-12-30 20:20:00,,0816.1,5.02,0.00,24.5,23.1,00.0,33.2,26.2,07.2,0000.0,0011.43,0005.51,0005.03
2022-12-30 20:21:00,,0816.1,5.06,0.00,24.5,23.1,00.0,33.2,26.2,07.4,0000.0,0010.94,0005.58,0005.10
2022-12-30 20:22:00,,0816.2,4.95,0.00,24.5,23.1,00.0,33.2,26.2,07.4,0000.0,0010.93,0005.60,0005.15
2022-12-30 20:23:00,,0816.3,5.01,0.00,24.5,23.1,00.0,33.3,26.2,07.5,0000.0,0010.40,0005.49,0005.05
2022-12-30 20:24:00,,0816.2,5.07,0.00,24.5,23.0,00.0,33.3,26.2,08.1,0000.0,0010.06,0005.39,0004.94
2022-12-30 20:25:00,,0816.2,5.01,0.00,24.4,22.7,00.0,33.3,26.1,08.7,0000.0,0009.98,0005.28,0004.82
2022-12-30 20:26:00,,0816.3,4.96,0.00,24.3,22.5,00.0,33.2,26.0,09.0,0000.0,0010.10,0005.29,0004.78
2022-12-30 20:27:00,,0816.3,5.02,0.00,24.3,22.4,00.0,33.2,25.9,09.1,0000.0,0010.58,0005.38,0004.84
2022-12-30 20:28:00,,0816.3,4.99,0.00,24.2,22.3,00.0,33.2,25.9,09.2,0000.0,0011.26,0005.54,0004.96
2022-12-30 20:29:00,,0816.4,5.01,0.00,24.2,22.4,00.0,33.2,26.0,09.2,0000.0,0011.55,0005.81,0005.21
2022-12-30 20:30:00,,0816.4,4.99,0.00,24.2,22.5,00.0,33.2,25.9,09.3,0000.0,0012.53,0006.07,0005.45
2022-12-30 20:31:00,,0816.4,4.98,0.00,24.2,22.6,00.0,33.1,25.9,09.4,0000.0,0012.75,0006.33,0005.72
2022-12-30 20:32:00,,0816.3,5.01,0.00,24.2,22.7,00.0,33.1,25.9,09.4,0001.8,0012.75,0006.64,0006.01
2022-12-30 20:33:00,,0816.3,5.00,0.00,24.2,22.8,00.0,33.1,26.0,09.4,0003.2,0012.95,0006.92,0006.27
2022-12-30 20:34:00,,0816.3,5.00,0.00,24.2,22.8,00.0,33.1,26.0,09.4,0003.2,0013.18,0007.11,0006.49
2022-12-30 20:35:00,,0816.3,4.99,0.00,24.2,22.9,00.0,33.1,26.0,09.4,0003.1,0013.45,0007.26,0006.65
2022-12-30 20:36:00,,0816.2,4.98,0.00,24.3,22.9,00.0,33.1,25.9,09.3,0002.6,0013.81,0007.43,0006.77
2022-12-30 20:37:00,,0816.1,5.03,0.00,24.3,22.9,00.0,33.1,26.0,09.3,0002.7,0014.10,0007.47,0006.84
2022-12-30 20:38:00,,0816.1,4.98,0.00,24.3,22.9,00.0,33.1,26.0,09.1,0003.0,0013.93,0007.46,0006.84
2022-12-30 20:39:00,,0816.1,4.96,0.00,24.3,22.9,00.0,33.1,26.0,08.4,0003.0,0013.25,0007.37,0006.76
2022-12-30 20:40:00,,0816.1,5.05,0.00,24.3,23.0,00.0,33.1,26.1,08.0,0003.0,0013.55,0007.21,0006.58
2022-12-30 20:41:00,,0816.1,5.05,0.00,24.3,23.0,00.0,33.1,26.1,08.2,0003.2,0013.56,0007.03,0006.40
2022-12-30 20:42:00,,0816.1,4.99,0.00,24.3,22.9,00.0,33.1,26.1,08.4,0003.6,0013.85,0006.91,0006.26
2022-12-30 20:43:00,,0816.1,5.01,0.00,24.3,22.9,00.0,33.1,26.1,08.3,0002.4,0014.50,0006.78,0006.13
2022-12-30 20:44:00,,0816.1,4.99,0.00,24.3,22.9,00.0,33.1,26.1,08.6,0000.0,0014.58,0006.67,0006.01
2022-12-30 20:45:00,,0816.0,4.96,0.00,24.3,22.9,00.0,33.1,26.0,09.0,0001.8,0014.73,0006.70,0006.02
2022-12-30 20:46:00,,0816.0,5.03,0.00,24.3,22.9,00.0,33.1,26.1,08.6,0003.7,0014.59,0006.69,0006.00
2022-12-30 20:47:00,,0816.1,5.00,0.00,24.3,22.9,00.0,33.1,26.1,08.3,0002.3,0014.33,0006.51,0005.86
2022-12-30 20:48:00,,0816.0,4.98,0.00,24.3,22.9,00.0,33.1,26.0,08.5,0003.2,0013.96,0006.44,0005.79
2022-12-30 20:49:00,,0816.1,4.99,0.00,24.3,22.9,00.0,33.1,26.1,08.5,0002.9,0013.55,0006.37,0005.74
2022-12-30 20:50:00,,0816.0,5.04,0.00,24.3,22.8,00.0,33.1,26.1,08.2,0002.7,0013.35,0006.27,0005.64
2022-12-30 20:51:00,,0815.9,4.98,0.00,24.2,22.8,00.0,33.1,26.0,08.2,0002.6,0012.87,0006.25,0005.63
2022-12-30 20:52:00,,0815.8,4.97,0.00,24.2,22.8,00.0,33.1,26.0,08.3,0002.2,0012.06,0006.25,0005.65
2022-12-30 20:53:00,,0815.7,4.99,0.00,24.2,22.8,00.0,33.1,26.0,08.3,0001.9,0011.51,0006.20,0005.64
2022-12-30 20:54:00,,0815.7,4.98,0.00,24.2,22.8,00.0,33.1,26.0,08.1,0001.4,0010.72,0006.17,0005.58
2022-12-30 20:55:00,,0815.8,5.06,0.00,24.2,22.9,00.0,33.1,26.0,07.7,0000.0,0010.31,0006.03,0005.44
2022-12-30 20:56:00,,0815.8,4.99,0.00,24.3,22.9,00.0,33.1,26.0,07.9,0000.0,0009.77,0005.81,0005.24
2022-12-30 20:57:00,,0815.9,4.99,0.00,24.3,22.9,00.0,33.1,26.1,08.0,0000.0,0009.78,0005.68,0005.12
2022-12-30 20:58:00,,0816.0,5.02,0.00,24.2,22.8,00.0,33.1,26.0,08.3,0000.0,0010.61,0005.75,0005.20
2022-12-30 20:59:00,,0816.0,4.98,0.00,24.2,22.8,00.0,33.1,26.0,08.4,0000.0,0010.98,0005.76,0005.24
